Location: Castellare
(42.4669°N, 9.4728°E)
Time: 09:10:17
(UTC+00:00)

Cosmos 2237 Rocket - Pass Details

Date: 17 February 2020
Orbit: 835 x 849 km, 71.0° (Epoch: 03 April)

Event Time Altitude Azimuth Distance (km) Brightness Sun altitude
Exits shadow 04:03:32 22° 339° (NNW) 1,766 3.7 -25.2°
Drops below altitude 10° 04:06:14 10° 4° (N) 2,455 4.7 -24.7°
Sets 04:09:04 0° 16° (NNE) 3,393 5.6 -24.2°
